Miscellaneous Local Product
Issued by NWS North Platte, NE

Home | Current Version | Previous Version | Text Only | Print | Product List | Glossary On
Versions: 1 2 3 4 5 6 7 8 9 10 11 12 13 14 15 16 17 18 19 20 21 22 23 24 25 26 27 28 29 30 31 32 33 34 35 36 37 38 39 40 41 42 43 44 45 46 47 48 49 50
102
AXUS43 KLBF 270210
MISLBF


WESTERN AND NORTH CENTRAL NEBRASKA HOURLY WEATHER ROUNDUP
NATIONAL WEATHER SERVICE NORTH PLATTE NE
900 PM CDT SUN MAR 26 2017

NOTE: "FAIR" INDICATES FEW OR NO CLOUDS BELOW 12,000 FEET WITH NO
SIGNIFICANT WEATHER AND/OR OBSTRUCTIONS TO VISIBILITY.

NOTE: STATIONS NOT REPORTING VARIABLES SUCH AS SKY/WEATHER OR
PRESSURE ARE PROVIDED BY RAWS AND APRS NETWORKS AND ARE NOT UNDER
NATIONAL WEATHER SERVICE QUALITY CONTROL.

...OBSERVATIONS IN AND NEAR THE EASTERN PANHANDLE OF NEBRASKA...

CITY           SKY/WX    TMP DP  RH WIND       PRES   REMARKS
PINE RIDGE     MOCLDY    44  39  82 N7        29.94R
CHADRON        CLEAR     42  37  82 N5        29.93S
ALLIANCE       MOCLDY    42  37  82 N7        29.92R
SIDNEY         CLEAR     42  35  76 NW9       29.93R
CRESCENT LAKE    N/A     47  38  72 N7          N/A
$$

...OBSERVATIONS IN NORTHERN NEBRASKA AND FAR SOUTHERN SOUTH DAKOTA...

CITY           SKY/WX    TMP DP  RH WIND       PRES   REMARKS
WINNER         FAIR      42  35  76 N6        29.95R
VALENTINE      CLOUDY    45  35  68 NE8       29.93R
THEDFORD       CLOUDY    50  37  59 E7        29.93R
AINSWORTH      MOCLDY    40  39  97 E6        29.95R
O`NEILL        CLOUDY    45  41  86 CALM      29.97R
ORD            CLOUDY    44  39  82 E7        29.93R
BROKEN BOW     PTCLDY    49  42  77 SE7       29.92R
VALENTINE NWR    N/A     47  36  66 NE6G13      N/A
HALSEY           N/A     52  31  44 E3          N/A
BUTTE            N/A     41  38  91 E6          N/A
CHAMBERS         N/A     44  40  85 N3          N/A
EWING            N/A     44  42  92 CALM        N/A
$$

...OBSERVATIONS IN SOUTHWEST NEBRASKA AND FAR NORTHEAST COLORADO...

CITY           SKY/WX    TMP DP  RH WIND       PRES   REMARKS
HOLYOKE        FAIR      46  36  66 NW3       29.92R
IMPERIAL       PTCLDY    45  41  86 S6        29.90R
OGALLALA       CLOUDY    51  38  60 CALM      29.90R
NORTH PLATTE   CLOUDY    51  41  68 E8        29.90R
MCCOOK         CLOUDY    48  41  76 S6        29.92R
LEXINGTON      CLOUDY    48  41  77 E9        29.93R
STAPLETON        N/A     51  38  61 CALM        N/A
GOTHENBURG       N/A     51  40  67 E10         N/A
CALLAWAY         N/A     51  43  73 E5          N/A
$$

...OBSERVATIONS IN CENTRAL LINCOLN COUNTY AREA...

CITY           SKY/WX    TMP DP  RH WIND       PRES   REMARKS
N.P. AIRPORT   CLOUDY    51  41  68 E8        29.90R
N.P. DOWNTOWN    N/A     53  42  66 E3          N/A
N.P. SOUTHEAST   N/A     52  41  67 E3          N/A
N.P. HILLCREST   N/A     52  41  67 SE10        N/A
$$

...SOME OBSERVATIONS FROM AROUND THE REGION...

CITY           SKY/WX    TMP DP  RH WIND       PRES   REMARKS
DENVER         MOCLDY    47  35  63 N6        29.97R
LIMON          CLEAR     36  33  89 NW3       29.96R
ASPEN          CLOUDY    38  25  59 SE3       29.99S
LARAMIE        CLOUDY    36  30  79 E5        29.94F WCI  32
CASPER         CLOUDY    42  32  67 CALM      29.90R
CHEYENNE       MOCLDY    40  33  76 NE5       29.96R
SCOTTSBLUFF    CLEAR     43  33  68 N5        29.93F
GRAND ISLAND   CLOUDY    47  45  93 E8        29.95S
OMAHA          CLOUDY    49  41  74 CALM      29.97R
SIOUX FALLS    CLOUDY    44  39  82 CALM      29.96R
PIERRE         CLOUDY    41  37  86 W6        29.92S
RAPID CITY     CLOUDY    42  39  89 CALM      29.93S
BISMARCK       PTCLDY    46  35  65 SE5       29.92R
KANSAS CITY    CLOUDY    50  45  83 NW5       29.96R
HILL CITY      CLOUDY    46  45  96 NW5       29.94S
WICHITA        TSTM      51  49  92 NE13      29.82R FOG
DODGE CITY     CLOUDY    45  43  93 N14       29.90R
OKLAHOMA CITY  PTCLDY    65  59  81 SE10      29.67S
DALLAS         CLOUDY    80  58  46 S22G37    29.68R
AMARILLO       CLEAR     48  37  65 N13       29.91R
$$




USA.gov is the U.S. government's official web portal to all federal, state and local government web resources and services.